Tracking 20624 objects as of 28-Mar-2020
HD Live streaming from Space Station
objects crossing your sky now

SL-14 R/B

Track SL-14 R/B now!
10-day predictions


NORAD ID: 23793
Int'l Code: 1996-009G
Perigee: 1,415.2 km
Apogee: 1,485.8 km
Inclination: 82.6 °
Period: 114.7 minutes
Semi major axis: 7821 km
RCS: 5.1045 m2 (large)
Launch date: February 19, 1996
Source: Commonwealth of Independent States (former USSR) (CIS)
Launch site: PLESETSK MISSILE AND SPACE COMPLEX (PKMTR)

Note: This is a ROCKET BODY
aabbcc
Your satellite tracking list
Your tracking list is empty




NASA's NSSDC Master Catalog

Two Line Element Set (TLE):
1 23793U 96009G   20088.11357326 +.00000003 +00000-0 -45763-4 0  9997
2 23793 082.5719 040.7438 0045158 009.2908 002.0815 12.55069948104331
Source of the keplerian elements: AFSPC